Latest Coastal Weather Observations for Cape Nelson
Issued at 7:52 pm EST Monday 4 May 2026 (issued every 10 minutes, with the page automatically refreshed every 10 minutes)
| Station Details | ID: 090184 | Name: CAPE NELSON LIGHTHOUSE | Lat: -38.43 | Lon: 141.54 | Height: 45.4 m |
| Date/Time EST |
Wind | Sea Height m |
Swell | Vis km |
Cloud | Weather | Temp °C |
Press MSL hPa |
Rain since 9am mm |
|||||
|---|---|---|---|---|---|---|---|---|---|---|---|---|---|---|
| Dir | Spd kts |
Gust kts |
Height m |
Period s |
Dir | |||||||||
| 04/07:39pm | NW | 15 | 28 | - | - | - | - | - | - | - | 14.3 | 1011.6 | 13.6 | |
| 04/07:30pm | NW | 14 | 22 | - | - | - | - | - | - | - | 13.9 | 1011.2 | 13.6 | |
| 04/07:07pm | WNW | 20 | 29 | - | - | - | - | - | - | - | 14.2 | 1010.7 | 13.6 | |
| 04/07:00pm | W | 21 | 29 | - | - | - | - | - | - | - | 14.1 | 1010.9 | 13.6 | |
| 04/06:30pm | WNW | 23 | 36 | - | - | - | - | - | - | - | 14.2 | 1010.0 | 13.6 | |
| 04/06:00pm | WNW | 21 | 31 | - | - | - | - | - | - | Recent precip. | 14.3 | 1009.5 | 13.4 | |
| 04/05:30pm | W | 23 | 35 | - | - | - | - | - | - | - | 14.5 | 1008.7 | 13.2 | |
| 04/05:00pm | WNW | 21 | 33 | - | - | - | - | - | - | - | 14.3 | 1008.2 | 13.2 | |
| 04/04:32pm | W | 29 | 39 | - | - | - | - | - | - | - | 14.6 | 1007.5 | 13.2 | |
| 04/04:30pm | W | 30 | 39 | - | - | - | - | - | - | - | 14.5 | 1007.4 | 13.2 | |
| 04/04:22pm | W | 26 | 38 | - | - | - | - | - | - | - | 14.3 | 1007.3 | 13.2 | |
| 04/04:15pm | WNW | 19 | 33 | - | - | - | - | - | - | - | 14.0 | 1007.3 | 13.2 | |
| 04/04:10pm | WNW | 22 | 35 | - | - | - | - | - | - | - | 13.3 | 1006.6 | 13.2 | |
| 04/04:00pm | WNW | 21 | 33 | - | - | - | - | - | - | - | 12.9 | 1007.0 | 12.6 | |
| 04/03:50pm | W | 29 | 39 | - | - | - | - | - | - | - | 14.3 | 1006.8 | 11.4 | |
| 04/03:37pm | W | 22 | 37 | - | - | - | - | - | - | - | 14.0 | 1006.5 | 11.4 | |
| 04/03:30pm | W | 19 | 31 | - | - | - | - | - | - | - | 14.0 | 1006.4 | 11.4 | |
| 04/03:06pm | W | 24 | 35 | - | - | - | - | - | - | - | 15.1 | 1005.8 | 11.0 | |
| 04/03:00pm | W | 24 | 32 | - | - | - | - | - | - | - | 15.0 | 1005.8 | 11.0 | |
| 04/02:30pm | W | 20 | 33 | - | - | - | - | - | - | - | 14.9 | 1005.3 | 11.0 | |
| 04/02:00pm | W | 18 | 28 | - | - | - | - | - | - | - | 15.0 | 1005.0 | 11.0 | |
| 04/01:33pm | WNW | 17 | 27 | - | - | - | - | - | - | - | 14.9 | 1004.9 | 10.8 | |
| 04/01:30pm | W | 18 | 27 | - | - | - | - | - | - | - | 14.9 | 1004.8 | 10.8 | |
| 04/01:00pm | WNW | 18 | 30 | - | - | - | - | - | - | - | 14.5 | 1004.6 | 10.8 | |
| 04/12:43pm | WNW | 16 | 28 | - | - | - | - | - | - | - | 14.4 | 1004.6 | 9.6 | |
| 04/12:30pm | WNW | 17 | 25 | - | - | - | - | - | - | - | 14.2 | 1004.8 | 9.6 | |
| 04/12:00pm | NW | 19 | 28 | - | - | - | - | - | - | Rain | 13.8 | 1004.8 | 4.8 | |
| 04/11:50am | NW | 17 | 29 | - | - | - | - | - | - | - | 13.9 | 1004.9 | 4.6 | |
| 04/11:30am | NNW | 17 | 26 | - | - | - | - | - | - | - | 13.9 | 1004.8 | 0.8 | |
| 04/11:00am | NNW | 19 | 32 | - | - | - | - | - | - | - | 15.8 | 1004.6 | 0.0 | |
| 04/10:30am | NNW | 19 | 29 | - | - | - | - | - | - | - | 16.0 | 1004.3 | 0.0 | |
| 04/10:04am | NNW | 17 | 28 | - | - | - | - | - | - | - | 15.9 | 1004.5 | 0.0 | |
| 04/10:00am | NNW | 17 | 25 | - | - | - | - | - | - | - | 15.8 | 1004.4 | 0.0 | |
| 04/09:33am | NNW | 16 | 26 | - | - | - | - | - | - | - | 15.1 | 1004.5 | 0.0 | |
| 04/09:30am | N | 17 | 25 | - | - | - | - | - | - | - | 15.0 | 1004.5 | 0.0 | |
| 04/09:00am | N | 17 | 29 | - | - | - | - | - | - | - | 14.8 | 1004.3 | 0.2 | |
| 04/08:41am | NNW | 16 | 26 | - | - | - | - | - | - | - | 14.3 | 1004.3 | 0.2 | |
| 04/08:30am | NNW | 16 | 25 | - | - | - | - | - | - | - | 14.2 | 1004.4 | 0.2 | |
| 04/08:00am | N | 15 | 25 | - | - | - | - | - | - | - | 13.4 | 1004.3 | 0.2 | |
| 04/07:44am | N | 16 | 26 | - | - | - | - | - | - | - | 13.5 | 1004.1 | 0.2 | |
| 04/07:30am | N | 16 | 25 | - | - | - | - | - | - | - | 13.3 | 1004.2 | 0.2 | |
| 04/07:00am | N | 17 | 30 | - | - | - | - | - | - | - | 13.2 | 1003.8 | 0.2 | |
| 04/06:30am | N | 17 | 27 | - | - | - | - | - | - | - | 13.2 | 1003.8 | 0.2 | |
| 04/06:03am | N | 16 | 27 | - | - | - | - | - | - | - | 13.2 | 1004.0 | 0.2 | |
| 04/06:00am | N | 16 | 23 | - | - | - | - | - | - | - | 13.1 | 1004.0 | 0.2 | |
| 04/05:30am | N | 13 | 21 | - | - | - | - | - | - | - | 13.2 | 1004.0 | 0.2 | |
| 04/05:00am | N | 15 | 25 | - | - | - | - | - | - | - | 13.5 | 1004.2 | 0.2 | |
| 04/04:45am | N | 15 | 27 | - | - | - | - | - | - | - | 13.5 | 1004.4 | 0.2 | |
| 04/04:30am | N | 15 | 23 | - | - | - | - | - | - | - | 13.2 | 1004.4 | 0.2 | |
| 04/04:00am | N | 14 | 21 | - | - | - | - | - | - | - | 12.9 | 1004.7 | 0.2 | |
| 04/03:30am | N | 14 | 21 | - | - | - | - | - | - | - | 12.9 | 1004.9 | 0.2 | |
| 04/03:00am | N | 15 | 22 | - | - | - | - | - | - | - | 13.2 | 1005.3 | 0.2 | |
| 04/02:47am | N | 15 | 25 | - | - | - | - | - | - | - | 13.3 | 1005.6 | 0.2 | |
| 04/02:30am | N | 12 | 21 | - | - | - | - | - | - | - | 13.3 | 1005.7 | 0.2 | |
| 04/02:00am | N | 10 | 17 | - | - | - | - | - | - | - | 13.4 | 1006.2 | 0.2 | |
| 04/01:30am | N | 11 | 16 | - | - | - | - | - | - | - | 13.3 | 1006.4 | 0.2 | |
| 04/01:00am | N | 11 | 16 | - | - | - | - | - | - | - | 13.2 | 1006.6 | 0.2 | |
| 04/12:30am | N | 11 | 16 | - | - | - | - | - | - | - | 13.0 | 1006.8 | 0.2 | |
| 04/12:00am | N | 12 | 20 | - | - | - | - | - | - | - | 13.2 | 1007.1 | 0.2 | |
| Date/Time EST |
Wind | Sea Height m |
Swell | Vis km |
Cloud | Weather | Temp °C |
Press MSL hPa |
Rain since 9am mm |
|||||
|---|---|---|---|---|---|---|---|---|---|---|---|---|---|---|
| Dir | Spd kts |
Gust kts |
Height m |
Period s |
Dir | |||||||||
| 03/11:30pm | N | 12 | 17 | - | - | - | - | - | - | - | 13.2 | 1007.5 | 0.2 | |
| 03/11:00pm | N | 14 | 21 | - | - | - | - | - | - | - | 13.3 | 1008.1 | 0.2 | |
| 03/10:30pm | N | 12 | 17 | - | - | - | - | - | - | - | 13.5 | 1008.2 | 0.2 | |
| 03/10:00pm | N | 11 | 18 | - | - | - | - | - | - | - | 13.5 | 1008.2 | 0.2 | |
| 03/09:30pm | N | 11 | 17 | - | - | - | - | - | - | - | 13.6 | 1008.2 | 0.2 | |
| 03/09:00pm | N | 14 | 24 | - | - | - | - | - | - | - | 14.0 | 1008.1 | 0.2 | |
| 03/08:30pm | N | 13 | 20 | - | - | - | - | - | - | - | 13.9 | 1008.2 | 0.2 | |
| 03/08:00pm | N | 12 | 21 | - | - | - | - | - | - | - | 13.9 | 1008.1 | 0.2 | |
| 03/07:30pm | N | 13 | 22 | - | - | - | - | - | - | - | 14.5 | 1008.1 | 0.2 | |
| 03/07:00pm | N | 14 | 21 | - | - | - | - | - | - | - | 14.9 | 1007.8 | 0.2 | |
| 03/06:30pm | N | 12 | 17 | - | - | - | - | - | - | - | 15.1 | 1007.5 | 0.2 | |
| 03/06:00pm | N | 10 | 18 | - | - | - | - | - | - | - | 15.2 | 1007.2 | 0.2 | |
| 03/05:30pm | N | 11 | 16 | - | - | - | - | - | - | - | 15.5 | 1007.1 | 0.2 | |
| 03/05:00pm | N | 11 | 16 | - | - | - | - | - | - | - | 16.3 | 1006.9 | 0.2 | |
| 03/04:30pm | N | 10 | 15 | - | - | - | - | - | - | - | 16.3 | 1006.9 | 0.2 | |
| 03/04:00pm | N | 11 | 18 | - | - | - | - | - | - | - | 16.7 | 1006.8 | 0.2 | |
| 03/03:30pm | N | 10 | 14 | - | - | - | - | - | - | - | 16.6 | 1006.9 | 0.2 | |
| 03/03:00pm | N | 11 | 17 | - | - | - | - | - | - | - | 17.1 | 1007.2 | 0.2 | |
| 03/02:30pm | NNW | 15 | 23 | - | - | - | - | - | - | - | 17.3 | 1007.2 | 0.2 | |
| 03/02:00pm | NNW | 12 | 19 | - | - | - | - | - | - | - | 16.8 | 1007.1 | 0.2 | |
| 03/01:30pm | NNW | 11 | 17 | - | - | - | - | - | - | - | 18.1 | 1007.1 | 0.2 | |
| 03/01:00pm | NNW | 13 | 18 | - | - | - | - | - | - | - | 17.9 | 1007.5 | 0.2 | |
| 03/12:30pm | NNW | 13 | 18 | - | - | - | - | - | - | - | 18.0 | 1007.6 | 0.2 | |
| 03/12:00pm | NNW | 12 | 17 | - | - | - | - | - | - | - | 17.0 | 1008.1 | 0.0 | |
| 03/11:30am | NNW | 13 | 18 | - | - | - | - | - | - | - | 16.3 | 1008.3 | 0.0 | |
| 03/11:00am | NNW | 12 | 17 | - | - | - | - | - | - | - | 16.4 | 1008.3 | 0.0 | |
| 03/10:30am | N | 13 | 19 | - | - | - | - | - | - | - | 15.6 | 1008.4 | 0.0 | |
| 03/10:00am | N | 11 | 15 | - | - | - | - | - | - | - | 14.3 | 1008.6 | 0.0 | |
| 03/09:30am | N | 9 | 15 | - | - | - | - | - | - | - | 13.9 | 1008.7 | 0.0 | |
| 03/09:00am | N | 10 | 15 | - | - | - | - | - | - | - | 12.9 | 1008.6 | 8.0 | |
| 03/08:30am | N | 10 | 13 | - | - | - | - | - | - | - | 12.5 | 1008.4 | 8.0 | |
| 03/08:00am | N | 9 | 13 | - | - | - | - | - | - | - | 12.3 | 1008.3 | 8.0 | |
| 03/07:30am | N | 9 | 16 | - | - | - | - | - | - | - | 12.4 | 1008.1 | 8.0 | |
| 03/07:00am | N | 9 | 15 | - | - | - | - | - | - | - | 12.3 | 1008.2 | 8.0 | |
| 03/06:30am | N | 9 | 12 | - | - | - | - | - | - | - | 12.2 | 1008.1 | 8.0 | |
| 03/06:00am | N | 9 | 12 | - | - | - | - | - | - | - | 12.5 | 1008.1 | 8.0 | |
| 03/05:30am | N | 9 | 11 | - | - | - | - | - | - | - | 12.8 | 1008.3 | 8.0 | |
| 03/05:00am | N | 9 | 13 | - | - | - | - | - | - | - | 13.0 | 1008.4 | 8.0 | |
| 03/04:30am | N | 8 | 11 | - | - | - | - | - | - | - | 13.0 | 1007.8 | 8.0 | |
| 03/04:00am | N | 9 | 13 | - | - | - | - | - | - | - | 13.2 | 1008.4 | 8.0 | |
| 03/03:30am | N | 9 | 13 | - | - | - | - | - | - | - | 13.3 | 1008.6 | 8.0 | |
| 03/03:00am | N | 9 | 12 | - | - | - | - | - | - | - | 12.9 | 1008.8 | 8.0 | |
| 03/02:30am | N | 7 | 10 | - | - | - | - | - | - | - | 12.4 | 1008.9 | 8.0 | |
| 03/02:00am | NNW | 7 | 9 | - | - | - | - | - | - | - | 12.6 | 1009.1 | 8.0 | |
| 03/01:30am | NW | 12 | 15 | - | - | - | - | - | - | - | 12.9 | 1009.7 | 7.4 | |
| 03/01:00am | NW | 10 | 14 | - | - | - | - | - | - | - | 12.9 | 1010.0 | 7.0 | |
| 03/12:30am | NW | 16 | 24 | - | - | - | - | - | - | - | 12.8 | 1010.2 | 6.0 | |
| 03/12:22am | WNW | 13 | 24 | - | - | - | - | - | - | - | 13.5 | 1010.1 | 4.8 | |
| 03/12:00am | N | 6 | 9 | - | - | - | - | - | - | Recent precip. | 15.6 | 1009.7 | 4.4 | |
| Date/Time EST |
Wind | Sea Height m |
Swell | Vis km |
Cloud | Weather | Temp °C |
Press MSL hPa |
Rain since 9am mm |
|||||
|---|---|---|---|---|---|---|---|---|---|---|---|---|---|---|
| Dir | Spd kts |
Gust kts |
Height m |
Period s |
Dir | |||||||||
| 02/11:30pm | NNE | 10 | 16 | - | - | - | - | - | - | - | 15.6 | 1009.5 | 4.2 | |
| 02/11:00pm | NNE | 13 | 21 | - | - | - | - | - | - | - | 15.9 | 1009.7 | 2.2 | |
| 02/10:30pm | NNE | 14 | 21 | - | - | - | - | - | - | - | 16.2 | 1009.7 | 1.4 | |
| 02/10:00pm | NNE | 15 | 21 | - | - | - | - | - | - | - | 16.2 | 1009.7 | 1.4 | |
| 02/09:30pm | NNE | 14 | 22 | - | - | - | - | - | - | - | 16.3 | 1010.1 | 1.2 | |
| 02/09:00pm | NNE | 11 | 17 | - | - | - | - | - | - | Recent precip. | 16.6 | 1010.0 | 0.8 | |
| 02/08:41pm | NNE | 15 | 25 | - | - | - | - | - | - | - | 16.7 | 1009.9 | 0.8 | |
| 02/08:30pm | NNE | 12 | 19 | - | - | - | - | - | - | - | 17.0 | 1009.8 | 0.4 | |
| 02/08:00pm | NNE | 7 | 10 | - | - | - | - | - | - | - | 17.1 | 1009.8 | 0.2 | |
| 02/07:30pm | N | 10 | 15 | - | - | - | - | - | - | - | 17.7 | 1010.5 | 0.2 | |
| 02/07:00pm | N | 13 | 20 | - | - | - | - | - | - | - | 18.6 | 1010.0 | 0.2 | |
| 02/06:53pm | NNW | 15 | 22 | - | - | - | - | - | - | - | 19.2 | 1009.8 | 0.0 | |
| 02/06:30pm | N | 8 | 12 | - | - | - | - | - | - | - | 21.1 | 1009.6 | 0.0 | |
| 02/06:00pm | NNE | 11 | 16 | - | - | - | - | - | - | - | 21.2 | 1009.0 | 0.0 | |
| 02/05:30pm | NE | 12 | 17 | - | - | - | - | - | - | - | 21.0 | 1008.4 | 0.0 | |
| 02/05:00pm | NE | 12 | 15 | - | - | - | - | - | - | - | 21.2 | 1008.4 | 0.0 | |
| 02/04:30pm | NNE | 11 | 17 | - | - | - | - | - | - | - | 22.2 | 1008.7 | 0.0 | |
| 02/04:04pm | NNE | 15 | 27 | - | - | - | - | - | - | - | 22.7 | 1008.6 | 0.0 | |
| 02/04:00pm | NNE | 13 | 27 | - | - | - | - | - | - | - | 22.7 | 1008.7 | 0.0 | |
| 02/03:30pm | NNE | 15 | 23 | - | - | - | - | - | - | - | 23.4 | 1008.8 | 0.0 | |
| 02/03:07pm | N | 15 | 26 | - | - | - | - | - | - | - | 23.5 | 1008.9 | 0.0 | |
| 02/03:00pm | N | 15 | 22 | - | - | - | - | - | - | - | 23.4 | 1008.9 | 0.0 | |
| 02/02:30pm | N | 18 | 28 | - | - | - | - | - | - | - | 25.2 | 1008.8 | 0.0 | |
| 02/02:05pm | N | 15 | 25 | - | - | - | - | - | - | - | 24.7 | 1008.7 | 0.0 | |
| 02/02:00pm | NNE | 15 | 24 | - | - | - | - | - | - | - | 24.8 | 1008.7 | 0.0 | |
| 02/01:30pm | NNE | 17 | 29 | - | - | - | - | - | - | - | 24.9 | 1008.5 | 0.0 | |
| 02/01:06pm | NNE | 15 | 29 | - | - | - | - | - | - | - | 25.4 | 1008.8 | 0.0 | |
| 02/01:00pm | NNE | 14 | 21 | - | - | - | - | - | - | - | 25.0 | 1009.0 | 0.0 | |
| 02/12:30pm | NNE | 15 | 25 | - | - | - | - | - | - | - | 25.5 | 1009.5 | 0.0 | |
| 02/12:24pm | NNE | 15 | 28 | - | - | - | - | - | - | - | 24.4 | 1009.7 | 0.0 | |
| 02/12:00pm | NNE | 14 | 21 | - | - | - | - | - | - | - | 23.5 | 1010.3 | 0.0 | |
| 02/11:49am | NNE | 15 | 26 | - | - | - | - | - | - | - | 23.2 | 1010.6 | 0.0 | |
| 02/11:30am | NNE | 15 | 23 | - | - | - | - | - | - | - | 22.6 | 1010.9 | 0.0 | |
| 02/11:00am | N | 17 | 27 | - | - | - | - | - | - | - | 22.6 | 1011.2 | 0.0 | |
| 02/10:39am | N | 16 | 30 | - | - | - | - | - | - | - | 22.7 | 1011.3 | 0.0 | |
| 02/10:30am | NNE | 16 | 24 | - | - | - | - | - | - | - | 22.7 | 1011.4 | 0.0 | |
| 02/10:00am | NNE | 15 | 22 | - | - | - | - | - | - | - | 22.1 | 1011.8 | 0.0 | |
| 02/09:30am | NNE | 15 | 21 | - | - | - | - | - | - | - | 21.6 | 1012.1 | 0.0 | |
| 02/09:19am | N | 15 | 25 | - | - | - | - | - | - | - | 21.4 | 1012.2 | 0.0 | |
| 02/09:00am | N | 15 | 23 | - | - | - | - | - | - | - | 21.1 | 1012.3 | 0.0 | |
| 02/08:30am | NNE | 14 | 20 | - | - | - | - | - | - | - | 20.8 | 1012.2 | 0.0 | |
| 02/08:00am | NNE | 14 | 20 | - | - | - | - | - | - | - | 20.4 | 1012.2 | 0.0 | |
| 02/07:30am | NNE | 13 | 19 | - | - | - | - | - | - | - | 19.9 | 1012.2 | 0.0 | |
| 02/07:00am | NNE | 11 | 17 | - | - | - | - | - | - | - | 18.8 | 1012.3 | 0.0 | |
| 02/06:30am | NE | 10 | 14 | - | - | - | - | - | - | - | 18.4 | 1012.4 | 0.0 | |
| 02/06:00am | NE | 11 | 15 | - | - | - | - | - | - | - | 18.6 | 1012.6 | 0.0 | |
| 02/05:30am | NE | 10 | 14 | - | - | - | - | - | - | - | 18.3 | 1012.8 | 0.0 | |
| 02/05:00am | NE | 10 | 14 | - | - | - | - | - | - | - | 18.2 | 1012.9 | 0.0 | |
| 02/04:30am | NE | 11 | 16 | - | - | - | - | - | - | - | 19.0 | 1013.1 | 0.0 | |
| 02/04:00am | NNE | 10 | 13 | - | - | - | - | - | - | - | 19.3 | 1013.3 | 0.0 | |
| 02/03:30am | NNE | 10 | 14 | - | - | - | - | - | - | - | 19.5 | 1013.5 | 0.0 | |
| 02/03:00am | NNE | 11 | 17 | - | - | - | - | - | - | - | 19.7 | 1013.8 | 0.0 | |
| 02/02:30am | NE | 11 | 15 | - | - | - | - | - | - | - | 19.8 | 1014.1 | 0.0 | |
| 02/02:00am | NE | 11 | 15 | - | - | - | - | - | - | - | 19.5 | 1014.6 | 0.0 | |
| 02/01:30am | NE | 10 | 16 | - | - | - | - | - | - | - | 19.2 | 1015.0 | 0.0 | |
| 02/01:00am | NE | 12 | 16 | - | - | - | - | - | - | - | 20.1 | 1015.2 | 0.0 | |
| 02/12:30am | NE | 11 | 15 | - | - | - | - | - | - | - | 20.4 | 1015.5 | 0.0 | |
| 02/12:00am | NNE | 9 | 13 | - | - | - | - | - | - | - | 20.9 | 1015.8 | 0.0 | |
| Date/Time EST |
Wind | Sea Height m |
Swell | Vis km |
Cloud | Weather | Temp °C |
Press MSL hPa |
Rain since 9am mm |
||||
|---|---|---|---|---|---|---|---|---|---|---|---|---|---|
| Dir | Spd kts |
Gust kts |
Height m |
Period s |
Dir | ||||||||
| 01/11:30pm | NNE | 9 | 13 | - | - | - | - | - | - | - | 20.9 | 1016.2 | 0.0 |
| 01/11:00pm | NNE | 11 | 15 | - | - | - | - | - | - | - | 21.1 | 1016.5 | 0.0 |
| 01/10:30pm | NNE | 9 | 13 | - | - | - | - | - | - | - | 21.1 | 1016.7 | 0.0 |
| 01/10:00pm | NNE | 10 | 16 | - | - | - | - | - | - | - | 22.1 | 1016.9 | 0.0 |
| 01/09:30pm | NNE | 9 | 14 | - | - | - | - | - | - | - | 21.6 | 1017.0 | 0.0 |
| 01/09:00pm | NNE | 8 | 12 | - | - | - | - | - | - | - | 22.0 | 1017.2 | 0.0 |
| 01/08:30pm | NNE | 8 | 12 | - | - | - | - | - | - | - | 21.9 | 1017.3 | 0.0 |
| 01/08:00pm | NNE | 8 | 11 | - | - | - | - | - | - | - | 22.0 | 1017.3 | 0.0 |
Other formats
Comma delimited format used in spreadsheet applications
http://www.bom.gov.au/fwo/IDV60701/IDV60701.94826.axf
JavaScript Object Notation format (JSON) in row-major order
http://www.bom.gov.au/fwo/IDV60701/IDV60701.94826.json
Data quality
Most of these data are generated automatically and are frequently updated. Quality checks on data are not normally performed. It is possible for incorrect values to appear. Refer to information at About Latest Weather Observations and please check the disclaimer before using these data.
